TimeCDT,TemperatureF,Dew PointF,Humidity,Sea Level PressureIn,VisibilityMPH,Wind Direction,Wind SpeedMPH,Gust SpeedMPH,PrecipitationIn,Events,Conditions,WindDirDegrees,DateUTC
12:16 AM,71.6,64.4,78,30.02,7.0,North,12.7,-,N/A,,Mostly Cloudy,10,2012-10-07 05:16:00
12:53 AM,71.1,64.0,78,30.03,9.0,North,15.0,-,N/A,,Overcast,10,2012-10-07 05:53:00
1:53 AM,70.0,63.0,78,30.04,10.0,North,16.1,-,N/A,,Overcast,10,2012-10-07 06:53:00
2:53 AM,68.0,61.0,78,30.05,9.0,North,13.8,-,N/A,,Overcast,10,2012-10-07 07:53:00
3:53 AM,64.9,59.0,81,30.06,8.0,North,18.4,-,N/A,,Overcast,10,2012-10-07 08:53:00
4:53 AM,64.0,57.0,78,30.07,8.0,North,17.3,-,N/A,,Overcast,10,2012-10-07 09:53:00
5:44 AM,60.8,55.4,82,30.09,7.0,North,17.3,-,N/A,,Overcast,360,2012-10-07 10:44:00
5:53 AM,61.0,55.0,81,30.09,8.0,North,17.3,23.0,N/A,,Overcast,10,2012-10-07 10:53:00
6:53 AM,60.1,53.1,78,30.11,8.0,North,18.4,-,N/A,,Overcast,10,2012-10-07 11:53:00
7:53 AM,59.0,52.0,78,30.14,9.0,North,13.8,25.3,N/A,,Overcast,10,2012-10-07 12:53:00
8:53 AM,60.1,51.1,72,30.15,9.0,North,17.3,-,N/A,,Overcast,10,2012-10-07 13:53:00
9:53 AM,61.0,50.0,67,30.17,10.0,North,16.1,-,N/A,,Unknown,10,2012-10-07 14:53:00
10:00 AM,60.8,48.2,63,30.17,10.0,North,18.4,-,N/A,,Overcast,10,2012-10-07 15:00:00
10:53 AM,62.1,48.9,62,30.17,10.0,North,17.3,-,N/A,,Overcast,10,2012-10-07 15:53:00
11:53 AM,64.0,48.9,58,30.16,10.0,NNE,15.0,21.9,N/A,,Overcast,20,2012-10-07 16:53:00
12:53 PM,66.0,50.0,56,30.14,10.0,NNE,12.7,19.6,N/A,,Overcast,20,2012-10-07 17:53:00
2:53 PM,69.1,51.1,53,30.10,10.0,North,10.4,-,N/A,,Overcast,360,2012-10-07 19:53:00
3:53 PM,70.0,52.0,53,30.09,10.0,NNE,10.4,-,N/A,,Overcast,20,2012-10-07 20:53:00
4:53 PM,71.1,52.0,51,30.08,10.0,NNW,12.7,-,N/A,,Scattered Clouds,340,2012-10-07 21:53:00
5:53 PM,69.1,53.1,57,30.08,10.0,North,11.5,-,N/A,,Clear,350,2012-10-07 22:53:00
6:53 PM,66.0,52.0,60,30.09,10.0,North,9.2,-,N/A,,Clear,350,2012-10-07 23:53:00
7:53 PM,64.0,51.1,63,30.12,10.0,North,12.7,-,N/A,,Mostly Cloudy,350,2012-10-08 00:53:00
8:53 PM,61.0,50.0,67,30.14,10.0,North,10.4,-,N/A,,Partly Cloudy,360,2012-10-08 01:53:00
9:53 PM,61.0,50.0,67,30.15,10.0,North,9.2,-,N/A,,Mostly Cloudy,10,2012-10-08 02:53:00
10:53 PM,59.0,50.0,72,30.15,10.0,North,8.1,-,N/A,,Clear,10,2012-10-08 03:53:00
11:53 PM,60.1,51.1,72,30.16,10.0,North,8.1,-,N/A,,Overcast,350,2012-10-08 04:53:00